TimeCST,TemperatureF,Dew PointF,Humidity,Sea Level PressureIn,VisibilityMPH,Wind Direction,Wind SpeedMPH,Gust SpeedMPH,PrecipitationIn,Events,Conditions,WindDirDegrees,DateUTC
12:53 AM,33.1,28.0,82,30.14,10.0,Calm,Calm,-,N/A,,Clear,0,2013-02-04 06:53:00
1:53 AM,36.0,28.0,73,30.12,10.0,NE,4.6,-,N/A,,Clear,40,2013-02-04 07:53:00
2:53 AM,35.1,28.0,76,30.11,10.0,NE,5.8,-,N/A,,Clear,40,2013-02-04 08:53:00
4:53 AM,34.0,28.0,79,30.14,10.0,NE,3.5,-,N/A,,Clear,40,2013-02-04 10:53:00
5:53 AM,34.0,27.0,75,30.12,10.0,NE,4.6,-,N/A,,Clear,50,2013-02-04 11:53:00
6:53 AM,35.1,28.0,76,30.15,10.0,East,3.5,-,N/A,,Clear,80,2013-02-04 12:53:00
7:53 AM,36.0,28.0,73,30.16,10.0,NE,5.8,-,N/A,,Clear,50,2013-02-04 13:53:00
8:53 AM,37.9,28.0,68,30.16,10.0,ENE,3.5,-,N/A,,Clear,60,2013-02-04 14:53:00
9:53 AM,39.9,28.9,65,30.16,10.0,ENE,5.8,-,N/A,,Clear,60,2013-02-04 15:53:00
10:53 AM,43.0,28.9,58,30.15,10.0,ENE,3.5,-,N/A,,Clear,70,2013-02-04 16:53:00
11:53 AM,46.0,28.0,50,30.13,10.0,ENE,3.5,-,N/A,,Clear,60,2013-02-04 17:53:00
12:53 PM,48.0,28.9,48,30.10,10.0,Calm,Calm,-,N/A,,Clear,0,2013-02-04 18:53:00
1:53 PM,50.0,32.0,50,30.06,10.0,West,4.6,-,N/A,,Clear,260,2013-02-04 19:53:00
2:53 PM,51.1,30.9,46,30.04,10.0,Calm,Calm,-,N/A,,Clear,0,2013-02-04 20:53:00
3:53 PM,52.0,32.0,47,30.03,10.0,Calm,Calm,-,N/A,,Clear,0,2013-02-04 21:53:00
4:53 PM,50.0,23.0,35,30.05,10.0,SSW,4.6,-,N/A,,Clear,210,2013-02-04 22:53:00
5:53 PM,46.0,32.0,58,30.06,10.0,Calm,Calm,-,N/A,,Clear,0,2013-02-04 23:53:00
6:53 PM,44.1,33.1,65,30.06,10.0,Calm,Calm,-,N/A,,Clear,0,2013-02-05 00:53:00
7:53 PM,44.1,35.1,71,30.07,10.0,Calm,Calm,-,N/A,,Clear,0,2013-02-05 01:53:00
8:53 PM,44.1,35.1,71,30.06,10.0,Calm,Calm,-,N/A,,Overcast,0,2013-02-05 02:53:00
9:53 PM,39.9,34.0,79,30.04,10.0,Calm,Calm,-,N/A,,Mostly Cloudy,0,2013-02-05 03:53:00
10:53 PM,39.9,34.0,79,30.03,10.0,Calm,Calm,-,N/A,,Overcast,0,2013-02-05 04:53:00
11:53 PM,42.1,34.0,73,30.02,10.0,Calm,Calm,-,N/A,,Overcast,0,2013-02-05 05:53:00